TimeCDT,TemperatureF,Dew PointF,Humidity,Sea Level PressureIn,VisibilityMPH,Wind Direction,Wind SpeedMPH,Gust SpeedMPH,PrecipitationIn,Events,Conditions,WindDirDegrees,DateUTC
12:15 AM,81.3,49.8,33,30.02,10.0,SE,10.4,-,N/A,,Clear,130,2013-06-27 05:15:00
12:35 AM,81.7,48.7,32,30.02,10.0,SE,10.4,-,N/A,,Clear,140,2013-06-27 05:35:00
1:15 AM,82.8,53.2,36,30.02,10.0,SSE,13.8,-,N/A,,Clear,150,2013-06-27 06:15:00
1:35 AM,82.4,56.3,41,30.03,10.0,SE,11.5,19.6,N/A,,Clear,140,2013-06-27 06:35:00
1:55 AM,79.2,54.7,43,30.03,10.0,ESE,6.9,-,N/A,,Clear,120,2013-06-27 06:55:00
2:15 AM,77.0,54.7,46,30.03,10.0,SE,5.8,-,N/A,,Clear,130,2013-06-27 07:15:00
2:35 AM,76.3,55.6,49,30.03,10.0,SSE,5.8,-,N/A,,Clear,160,2013-06-27 07:35:00
2:55 AM,75.7,56.8,52,30.03,10.0,South,6.9,-,N/A,,Clear,180,2013-06-27 07:55:00
3:15 AM,76.3,58.1,53,30.03,10.0,South,8.1,-,N/A,,Clear,180,2013-06-27 08:15:00
3:35 AM,75.4,58.3,55,30.03,10.0,South,8.1,-,N/A,,Clear,190,2013-06-27 08:35:00
3:55 AM,74.3,58.3,57,30.03,10.0,SSW,6.9,-,N/A,,Clear,200,2013-06-27 08:55:00
4:15 AM,72.9,58.6,61,30.03,10.0,South,6.9,-,N/A,,Clear,190,2013-06-27 09:15:00
4:35 AM,72.9,59.4,62,30.04,10.0,SSW,4.6,-,N/A,,Clear,200,2013-06-27 09:35:00
4:55 AM,72.9,59.9,64,30.04,10.0,SSW,4.6,-,N/A,,Clear,210,2013-06-27 09:55:00
5:15 AM,71.2,59.0,65,30.04,10.0,SW,3.5,-,N/A,,Clear,220,2013-06-27 10:15:00
5:35 AM,71.6,59.4,65,30.04,10.0,SSW,3.5,-,N/A,,Clear,200,2013-06-27 10:35:00
5:55 AM,71.8,59.9,66,30.04,10.0,South,5.8,-,N/A,,Clear,190,2013-06-27 10:55:00
6:15 AM,70.9,59.9,68,30.04,10.0,SSW,4.6,-,N/A,,Clear,200,2013-06-27 11:15:00
6:35 AM,70.2,59.9,70,30.06,10.0,Calm,Calm,-,N/A,,Clear,0,2013-06-27 11:35:00
6:55 AM,69.8,60.1,71,30.07,10.0,Calm,Calm,-,N/A,,Clear,0,2013-06-27 11:55:00
7:15 AM,70.7,60.4,70,30.07,10.0,Calm,Calm,-,N/A,,Clear,0,2013-06-27 12:15:00
7:35 AM,71.6,60.6,68,30.08,10.0,Calm,Calm,-,N/A,,Clear,0,2013-06-27 12:35:00
7:55 AM,73.6,60.8,64,30.09,10.0,SSW,3.5,-,N/A,,Clear,200,2013-06-27 12:55:00
8:15 AM,75.6,61.0,60,30.10,10.0,SSW,5.8,-,N/A,,Clear,200,2013-06-27 13:15:00
8:35 AM,77.0,61.2,58,30.11,10.0,SSW,8.1,-,N/A,,Clear,210,2013-06-27 13:35:00
8:55 AM,79.2,61.3,54,30.11,10.0,SSW,11.5,-,N/A,,Clear,200,2013-06-27 13:55:00
9:15 AM,80.6,61.2,51,30.13,10.0,WSW,10.4,-,N/A,,Clear,240,2013-06-27 14:15:00
9:35 AM,83.1,61.2,47,30.13,10.0,SW,9.2,-,N/A,,Clear,230,2013-06-27 14:35:00
9:55 AM,84.9,60.3,43,30.12,10.0,SSW,10.4,-,N/A,,Clear,210,2013-06-27 14:55:00
10:15 AM,86.5,59.5,40,30.12,10.0,SW,8.1,-,N/A,,Clear,220,2013-06-27 15:15:00
10:35 AM,88.0,58.6,37,30.11,10.0,SW,5.8,-,N/A,,Clear,230,2013-06-27 15:35:00
10:55 AM,89.4,58.3,35,30.11,10.0,SW,6.9,-,N/A,,Clear,220,2013-06-27 15:55:00
11:15 AM,91.6,57.4,31,30.11,10.0,SSW,9.2,-,N/A,,Clear,210,2013-06-27 16:15:00
11:35 AM,93.4,57.2,30,30.11,10.0,SSW,6.9,-,N/A,,Clear,210,2013-06-27 16:35:00
11:55 AM,95.2,55.8,27,30.10,10.0,SW,11.5,-,N/A,,Clear,220,2013-06-27 16:55:00
12:15 PM,97.2,54.1,23,30.10,10.0,South,9.2,16.1,N/A,,Clear,180,2013-06-27 17:15:00
12:35 PM,99.3,50.7,19,30.10,10.0,South,9.2,-,N/A,,Clear,190,2013-06-27 17:35:00
12:55 PM,99.5,51.8,20,30.10,10.0,SSW,9.2,20.7,N/A,,Clear,200,2013-06-27 17:55:00
1:15 PM,101.3,50.9,18,30.10,10.0,South,13.8,18.4,N/A,,Clear,170,2013-06-27 18:15:00
1:35 PM,101.1,49.6,18,30.09,10.0,South,11.5,19.6,N/A,,Clear,180,2013-06-27 18:35:00
1:55 PM,101.7,46.8,16,30.09,10.0,South,8.1,18.4,N/A,,Clear,180,2013-06-27 18:55:00
2:15 PM,101.7,48.6,17,30.09,10.0,South,10.4,17.3,N/A,,Clear,190,2013-06-27 19:15:00
2:35 PM,102.6,46.8,15,30.09,10.0,SW,5.8,-,N/A,,Clear,220,2013-06-27 19:35:00
2:55 PM,102.7,45.7,14,30.08,10.0,South,12.7,19.6,N/A,,Clear,180,2013-06-27 19:55:00
3:15 PM,102.6,45.1,14,30.08,10.0,South,11.5,18.4,N/A,,Clear,180,2013-06-27 20:15:00
3:35 PM,102.7,45.5,14,30.08,10.0,SSW,5.8,20.7,N/A,,Clear,200,2013-06-27 20:35:00
3:55 PM,102.7,45.5,14,30.08,10.0,SSW,9.2,-,N/A,,Clear,200,2013-06-27 20:55:00
4:15 PM,103.1,44.6,14,30.08,10.0,South,13.8,18.4,N/A,,Clear,190,2013-06-27 21:15:00
4:35 PM,102.6,43.0,13,30.07,10.0,SSE,3.5,-,N/A,,Clear,160,2013-06-27 21:35:00
4:55 PM,103.6,43.3,13,30.06,10.0,South,10.4,-,N/A,,Clear,180,2013-06-27 21:55:00
5:15 PM,104.0,42.8,12,30.05,10.0,SE,10.4,-,N/A,,Clear,140,2013-06-27 22:15:00
5:35 PM,103.1,42.8,13,30.04,10.0,South,11.5,17.3,N/A,,Clear,170,2013-06-27 22:35:00
5:55 PM,102.9,41.9,12,30.04,10.0,South,6.9,-,N/A,,Clear,170,2013-06-27 22:55:00
6:15 PM,103.6,41.9,12,30.04,10.0,South,15.0,19.6,N/A,,Clear,180,2013-06-27 23:15:00
6:35 PM,102.9,40.8,12,30.03,10.0,South,5.8,-,N/A,,Clear,190,2013-06-27 23:35:00
6:55 PM,101.3,40.5,12,30.03,10.0,South,12.7,16.1,N/A,,Clear,170,2013-06-27 23:55:00
7:15 PM,100.4,40.1,13,30.03,10.0,South,8.1,-,N/A,,Clear,180,2013-06-28 00:15:00
7:35 PM,100.8,40.1,12,30.03,10.0,SSE,11.5,16.1,N/A,,Clear,160,2013-06-28 00:35:00
7:55 PM,100.2,39.6,12,30.02,10.0,South,11.5,-,N/A,,Clear,180,2013-06-28 00:55:00
8:15 PM,97.2,39.2,13,30.03,10.0,South,11.5,-,N/A,,Clear,170,2013-06-28 01:15:00
8:35 PM,94.5,39.6,15,30.03,10.0,South,9.2,-,N/A,,Clear,170,2013-06-28 01:35:00
8:55 PM,93.7,39.0,15,30.04,10.0,SSE,10.4,-,N/A,,Clear,160,2013-06-28 01:55:00
9:15 PM,90.5,43.7,20,30.05,10.0,SSE,8.1,-,N/A,,Clear,160,2013-06-28 02:15:00
9:35 PM,88.7,45.7,22,30.05,10.0,SSE,9.2,-,N/A,,Clear,160,2013-06-28 02:35:00
9:55 PM,88.2,47.5,24,30.06,10.0,SSE,10.4,-,N/A,,Clear,160,2013-06-28 02:55:00
10:15 PM,87.3,48.2,26,30.07,10.0,SSE,11.5,-,N/A,,Clear,160,2013-06-28 03:15:00
10:35 PM,86.7,48.6,27,30.08,10.0,SSE,11.5,-,N/A,,Clear,160,2013-06-28 03:35:00
10:55 PM,85.6,48.6,28,30.09,10.0,SSE,11.5,-,N/A,Thunderstorm,Clear,160,2013-06-28 03:55:00
11:15 PM,85.6,47.8,27,30.10,10.0,SSE,10.4,-,N/A,Thunderstorm,Clear,160,2013-06-28 04:15:00
11:35 PM,89.2,46.9,23,30.16,5.0,ENE,29.9,44.9,N/A,,Haze,70,2013-06-28 04:35:00
11:55 PM,84.2,51.1,32,30.19,7.0,East,24.2,32.2,N/A,Rain,Light Rain,80,2013-06-28 04:55:00